Stündliche Wetter Warpalice

Heute, 23 Oktober, Freitag

Zeit Temperatur Niederschläge Wind Luftdruck Luftfeuchtigkeit
00:00 +12°C° 0 mm 4 m/S 751 mmHg 87%
01:00 +12°C° 0 mm 5 m/S 750 mmHg 84%
02:00 +12°C° 0 mm 5 m/S 750 mmHg 85%
03:00 +12°C° 0 mm 5 m/S 750 mmHg 85%
04:00 +12°C° 0 mm 5 m/S 750 mmHg 86%
05:00 +12°C° 0 mm 5 m/S 750 mmHg 87%
06:00 +12°C° 0 mm 4 m/S 750 mmHg 89%
07:00 +12°C° 0 mm 4 m/S 750 mmHg 90%
08:00 +13°C° 0 mm 4 m/S 750 mmHg 87%
09:00 +14°C° 0 mm 4 m/S 750 mmHg 84%
10:00 +15°C° 0 mm 4 m/S 750 mmHg 80%
11:00 +15°C° 0 mm 4 m/S 750 mmHg 77%
12:00 +17°C° 0 mm 4 m/S 750 mmHg 74%
13:00 +17°C° 0 mm 4 m/S 750 mmHg 71%
14:00 +13°C° 0 mm 2 m/S 749 mmHg 88%
15:00 +14°C° 0 mm 2 m/S 749 mmHg 83%
16:00 +16°C° 0 mm 2 m/S 749 mmHg 79%
17:00 +15°C° 0 mm 2 m/S 749 mmHg 81%
18:00 +15°C° 0 mm 2 m/S 749 mmHg 84%
19:00 +14°C° 0 mm 2 m/S 749 mmHg 87%
20:00 +14°C° 0.2 mm 2 m/S 749 mmHg 89%
21:00 +14°C° 0.2 mm 1 m/S 749 mmHg 90%
22:00 +14°C° 0.2 mm 1 m/S 749 mmHg 92%
23:00 +14°C° 1.2 mm 1 m/S 749 mmHg 93%

Morgen, 24 Oktober, Samstag

Zeit Temperatur Niederschläge Wind Luftdruck Luftfeuchtigkeit
00:00 +13°C° 1.2 mm 1 m/S 749 mmHg 94%
01:00 +13°C° 1.2 mm 1 m/S 749 mmHg 94%
02:00 +13°C° 0.3 mm 1 m/S 749 mmHg 94%
03:00 +13°C° 0.3 mm 1 m/S 749 mmHg 94%
04:00 +12°C° 0.3 mm 1 m/S 749 mmHg 95%
05:00 +12°C° 0 mm 1 m/S 750 mmHg 94%
06:00 +12°C° 0 mm 2 m/S 750 mmHg 93%
07:00 +12°C° 0 mm 2 m/S 750 mmHg 93%
08:00 +12°C° 0 mm 3 m/S 750 mmHg 89%
09:00 +13°C° 0 mm 4 m/S 751 mmHg 84%
10:00 +14°C° 0 mm 5 m/S 751 mmHg 80%
11:00 +14°C° 0 mm 5 m/S 751 mmHg 78%
12:00 +15°C° 0 mm 6 m/S 751 mmHg 75%
13:00 +15°C° 0 mm 6 m/S 751 mmHg 73%
14:00 +14°C° 0.1 mm 5 m/S 751 mmHg 74%
15:00 +14°C° 0.1 mm 5 m/S 751 mmHg 75%
16:00 +14°C° 0.1 mm 5 m/S 752 mmHg 76%
17:00 +13°C° 0 mm 4 m/S 752 mmHg 80%
18:00 +11°C° 0 mm 3 m/S 752 mmHg 83%
19:00 +10°C° 0 mm 2 m/S 753 mmHg 87%
20:00 +10°C° 0 mm 2 m/S 753 mmHg 88%
21:00 +10°C° 0 mm 2 m/S 753 mmHg 89%
22:00 +10°C° 0 mm 2 m/S 754 mmHg 91%
23:00 +10°C° 0 mm 2 m/S 754 mmHg 91%

übermorgen, 25 Oktober, Sonntag

Zeit Temperatur Niederschläge Wind Luftdruck Luftfeuchtigkeit
00:00 +9°C° 0 mm 3 m/S 754 mmHg 92%
01:00 +9°C° 0 mm 3 m/S 754 mmHg 92%
02:00 +9°C° 0 mm 3 m/S 754 mmHg 93%
03:00 +9°C° 0 mm 3 m/S 754 mmHg 93%
04:00 +9°C° 0 mm 3 m/S 754 mmHg 93%
05:00 +9°C° 0 mm 3 m/S 754 mmHg 94%
06:00 +9°C° 0 mm 3 m/S 754 mmHg 94%
07:00 +9°C° 0 mm 3 m/S 754 mmHg 95%
08:00 +10°C° 0 mm 3 m/S 754 mmHg 90%
09:00 +12°C° 0 mm 4 m/S 754 mmHg 84%
10:00 +13°C° 0 mm 4 m/S 754 mmHg 79%
11:00 +14°C° 0 mm 4 m/S 754 mmHg 75%
12:00 +15°C° 0 mm 4 m/S 754 mmHg 71%
13:00 +17°C° 0 mm 4 m/S 753 mmHg 67%
14:00 +15°C° 0 mm 4 m/S 753 mmHg 71%
15:00 +14°C° 0 mm 3 m/S 753 mmHg 74%
16:00 +14°C° 0 mm 3 m/S 752 mmHg 78%
17:00 +13°C° 0 mm 3 m/S 752 mmHg 80%
18:00 +12°C° 0 mm 4 m/S 752 mmHg 83%
19:00 +12°C° 0 mm 4 m/S 752 mmHg 85%
20:00 +11°C° 0 mm 4 m/S 752 mmHg 85%
21:00 +11°C° 0 mm 4 m/S 752 mmHg 86%
22:00 +11°C° 0 mm 4 m/S 752 mmHg 86%
23:00 +10°C° 0 mm 4 m/S 752 mmHg 87%

, 26 Oktober, Montag

Zeit Temperatur Niederschläge Wind Luftdruck Luftfeuchtigkeit
00:00 +10°C° 0 mm 4 m/S 752 mmHg 89%
01:00 +10°C° 0 mm 4 m/S 751 mmHg 91%
02:00 +8°C° 0 mm 4 m/S 751 mmHg 91%
03:00 +8°C° 0 mm 4 m/S 751 mmHg 92%
04:00 +8°C° 0 mm 4 m/S 750 mmHg 93%
05:00 +8°C° 0 mm 4 m/S 750 mmHg 93%
06:00 +7°C° 0 mm 4 m/S 750 mmHg 94%
07:00 +7°C° 0 mm 4 m/S 750 mmHg 94%
08:00 +8°C° 0 mm 5 m/S 749 mmHg 88%
09:00 +10°C° 0 mm 5 m/S 749 mmHg 82%
10:00 +12°C° 0 mm 5 m/S 749 mmHg 76%
11:00 +12°C° 0 mm 5 m/S 748 mmHg 74%
12:00 +13°C° 0 mm 5 m/S 748 mmHg 73%
13:00 +14°C° 0 mm 6 m/S 748 mmHg 71%
14:00 +13°C° 0 mm 5 m/S 747 mmHg 74%
15:00 +13°C° 0 mm 5 m/S 747 mmHg 77%
16:00 +13°C° 0 mm 5 m/S 747 mmHg 79%
17:00 +12°C° 0 mm 5 m/S 747 mmHg 82%
18:00 +12°C° 0 mm 5 m/S 747 mmHg 85%
19:00 +12°C° 0 mm 5 m/S 747 mmHg 87%
20:00 +12°C° 0 mm 5 m/S 746 mmHg 89%
21:00 +11°C° 0 mm 4 m/S 746 mmHg 90%
22:00 +11°C° 0 mm 4 m/S 746 mmHg 91%
23:00 +11°C° 0 mm 4 m/S 746 mmHg 91%

26 Oktober, Montag

Zeit Temperatur Niederschläge Wind Luftdruck Luftfeuchtigkeit
00:00 +10°C° 0 mm 4 m/S 752 mmHg 89%
01:00 +10°C° 0 mm 4 m/S 751 mmHg 91%
02:00 +8°C° 0 mm 4 m/S 751 mmHg 91%
03:00 +8°C° 0 mm 4 m/S 751 mmHg 92%
04:00 +8°C° 0 mm 4 m/S 750 mmHg 93%
05:00 +8°C° 0 mm 4 m/S 750 mmHg 93%
06:00 +7°C° 0 mm 4 m/S 750 mmHg 94%
07:00 +7°C° 0 mm 4 m/S 750 mmHg 94%
08:00 +8°C° 0 mm 5 m/S 749 mmHg 88%
09:00 +10°C° 0 mm 5 m/S 749 mmHg 82%
10:00 +12°C° 0 mm 5 m/S 749 mmHg 76%
11:00 +12°C° 0 mm 5 m/S 748 mmHg 74%
12:00 +13°C° 0 mm 5 m/S 748 mmHg 73%
13:00 +14°C° 0 mm 6 m/S 748 mmHg 71%
14:00 +13°C° 0 mm 5 m/S 747 mmHg 74%
15:00 +13°C° 0 mm 5 m/S 747 mmHg 77%
16:00 +13°C° 0 mm 5 m/S 747 mmHg 79%
17:00 +12°C° 0 mm 5 m/S 747 mmHg 82%
18:00 +12°C° 0 mm 5 m/S 747 mmHg 85%
19:00 +12°C° 0 mm 5 m/S 747 mmHg 87%
20:00 +12°C° 0 mm 5 m/S 746 mmHg 89%
21:00 +11°C° 0 mm 4 m/S 746 mmHg 90%
22:00 +11°C° 0 mm 4 m/S 746 mmHg 91%
23:00 +11°C° 0 mm 4 m/S 746 mmHg 91%

27 Oktober, Dienstag

Zeit Temperatur Niederschläge Wind Luftdruck Luftfeuchtigkeit
00:00 +11°C° 0 mm 4 m/S 746 mmHg 92%
01:00 +10°C° 0 mm 4 m/S 746 mmHg 92%
02:00 +11°C° 0 mm 4 m/S 746 mmHg 90%
03:00 +11°C° 0 mm 4 m/S 746 mmHg 88%
04:00 +11°C° 0 mm 4 m/S 746 mmHg 86%
05:00 +11°C° 0 mm 4 m/S 746 mmHg 86%
06:00 +11°C° 0 mm 4 m/S 746 mmHg 86%
07:00 +11°C° 0 mm 4 m/S 747 mmHg 86%
08:00 +12°C° 0 mm 4 m/S 747 mmHg 82%
09:00 +13°C° 0 mm 4 m/S 747 mmHg 78%
10:00 +14°C° 0 mm 5 m/S 747 mmHg 74%
11:00 +15°C° 0 mm 4 m/S 748 mmHg 71%
12:00 +15°C° 0 mm 4 m/S 748 mmHg 69%
13:00 +17°C° 0 mm 4 m/S 748 mmHg 67%
14:00 +16°C° 0 mm 3 m/S 748 mmHg 70%
15:00 +16°C° 0 mm 3 m/S 748 mmHg 73%
16:00 +15°C° 0 mm 2 m/S 749 mmHg 77%
17:00 +15°C° 0 mm 2 m/S 749 mmHg 79%
18:00 +14°C° 0 mm 2 m/S 749 mmHg 82%
19:00 +14°C° 0 mm 2 m/S 749 mmHg 85%
20:00 +14°C° 0 mm 2 m/S 750 mmHg 83%
21:00 +14°C° 0 mm 2 m/S 750 mmHg 82%
22:00 +14°C° 0 mm 2 m/S 750 mmHg 81%
23:00 +14°C° 0 mm 2 m/S 750 mmHg 83%

28 Oktober, Mittwoch

Zeit Temperatur Niederschläge Wind Luftdruck Luftfeuchtigkeit
00:00 +13°C° 0 mm 2 m/S 750 mmHg 85%
01:00 +13°C° 0 mm 2 m/S 750 mmHg 86%
02:00 +12°C° 0 mm 2 m/S 750 mmHg 87%
03:00 +12°C° 0 mm 2 m/S 750 mmHg 88%
04:00 +12°C° 0 mm 2 m/S 750 mmHg 89%
05:00 +12°C° 0 mm 2 m/S 750 mmHg 89%
06:00 +12°C° 0 mm 2 m/S 751 mmHg 90%
07:00 +10°C° 0 mm 2 m/S 751 mmHg 90%
08:00 +12°C° 0 mm 2 m/S 751 mmHg 88%
09:00 +12°C° 0 mm 2 m/S 751 mmHg 86%
10:00 +12°C° 0 mm 3 m/S 751 mmHg 84%
11:00 +12°C° 0 mm 3 m/S 751 mmHg 79%
12:00 +13°C° 0 mm 4 m/S 751 mmHg 74%
13:00 +14°C° 0 mm 4 m/S 752 mmHg 69%
14:00 +13°C° 0 mm 4 m/S 752 mmHg 72%
15:00 +12°C° 0 mm 4 m/S 752 mmHg 76%
16:00 +12°C° 0 mm 3 m/S 752 mmHg 79%
17:00 +11°C° 0 mm 3 m/S 753 mmHg 82%
18:00 +10°C° 0 mm 3 m/S 753 mmHg 85%
19:00 +9°C° 0 mm 2 m/S 753 mmHg 88%
20:00 +9°C° 0 mm 2 m/S 753 mmHg 88%
21:00 +9°C° 0 mm 3 m/S 754 mmHg 89%
22:00 +8°C° 0 mm 3 m/S 754 mmHg 90%
23:00 +8°C° 0 mm 3 m/S 754 mmHg 90%
Mehr zeigen

Wir brauchen deine Erlaubnis

Meteoprog und unser Service Anbieter werden persönliche Daten aufbewahren, so wie Cookies, Geräte Bezeichnung oder ähnliche Technologien von deinem Gerät und Prozess, so wie Persönliche Daten Inhalte und Werbungen, genauso wie social Media und den Verkehr zu analysieren.

  • Aufbewahrung und/oder Zugang zu deiner Geräte Informationen.

    Cookies, Geräte Bezeichnung oder andere Informationen, können aufbewahrt oder Zugang zu deinem Gerät erhalten, für den Grund, der oben angegeben wird.

  • Personalisierte Werbung und Inhalte, Messungen, Einblick in das Publikum und Produkt Entwicklung.

    Werbungen und Inhalte können personalisiert werden, basierend auf ein Profil. Mehr Daten können besser personalisierte Werbungen und Inhalte hinzufügen. Werbung und Inhalte können gezeigt und gemessen werden. Einblicke über das Publikum, welche die Werbung gesehen haben und den Inhalt, können abgeleitet werden. So wie Daten können genutzt werden, um es zu verbessern oder die Benutzer Erfahrung zu verbessern das System und die Software.

Wenn du “Ich stimme zu” klickst, erlaubst du uns, die Cookies zu benutzen die Geräte Bezeichnung, den Web oder ähnliche Technologien zu benutzen. Deine Settings, können in deinem Gerät bei deinem Browser geändert werden.

Für den bestimmten Zweck, berechtigten Interessen beruhen darauf, mehr als auf den Inhalt. Du kannst mehr darüber in unseren Privaten und Cookie Politik lesen.